[[{"header":{"parameterUnit":"m.s-1","parameterCategory":2,"la1":30.2991,"la2":30.254,"lo1":-89.0895,"lo2":-89.0444,"dy":0.0017,"dx":0.0017,"nx":28,"ny":28,"refTime":"2023-08-04T21:00:00:Z","depth":"0","parameterNumber":2,"parameterNumberName":"U-component_of_CURRENTS"},"data":[0,0,0,0,0,0,0,0,0,0,0,0,0,0,0,0,0,0,0,0,0,0,0,0,0,0,0,0,0,0,0,0,0,0,0,0,0,0,0,0,0,0,0,0,0,0,0,0,0,0,0,0,0,0,0,0,0,0,0.2055,0.2056,0,0.2056,0.2055,0.2055,0.2083,0.2085,0.2086,0.2087,0.2144,0.2144,0.2145,0,0,0,0,0,0,0,0,0,0,0,0,0,0.1967,0.1968,0.2055,0.2056,0.2057,0.2056,0.2055,0.2055,0.2083,0.2085,0.2087,0.2088,0.2144,0.2144,0.2145,0,0,0,0,0,0,0,0,0,0,0,0,0,0.1983,0.1969,0.2055,0.2076,0.2078,0.2056,0.2055,0.2054,0.2083,0.2085,0.2087,0.2089,0.2144,0.2144,0.2145,0.2105,0,0,0.2146,0.2146,0,0,0,0,0,0,0,0,0.1983,0.1986,0.2072,0.2075,0.2077,0.2078,0.2045,0.2077,0.2082,0.2074,0.2088,0.209,0.213,0.2132,0.2116,0.2107,0.211,0.2146,0.2146,0.2146,0.2146,0,0,0,0,0,0,0,0.1981,0.1985,0.2048,0.2073,0.2076,0.2047,0.2052,0.205,0.2086,0.2074,0.2078,0.2089,0.2131,0.2116,0.2118,0.2111,0.2146,0.2146,0.2146,0.2146,0.218,0.2181,0,0,0,0,0,0,0.1999,0.1985,0.2048,0.2049,0.2042,0.2048,0.2053,0.207,0.2085,0.2091,0.2087,0.209,0.2114,0.2118,0.2121,0.219,0.2146,0.2146,0.2146,0.218,0.2181,0.2181,0,0,0,0,0,0,0.1998,0.2005,0.2049,0.2022,0.2027,0.2049,0.2066,0.2069,0.2061,0.2095,0.2101,0.2079,0.2116,0.212,0.2151,0.2188,0.2146,0.2147,0.2179,0.218,0.2181,0.2255,0,0,0,0,0,0,0.1995,0.2004,0.2003,0.2024,0.2029,0.2042,0.2065,0.2068,0.2068,0.2072,0.209,0.2097,0.2118,0.2151,0.2151,0.2188,0.2147,0.2178,0.2179,0.2181,0.2251,0.2258,0.2264,0,0,0,0,0,0.1992,0.1985,0.2003,0.201,0.2033,0.2042,0.204,0.2058,0.2065,0.2057,0.2092,0.2096,0.216,0.2151,0.2152,0.219,0.2177,0.2179,0.2181,0.2248,0.2257,0.2264,0,0,0,0,0,0,0.195,0.1988,0.2008,0.2016,0.2034,0.205,0.2037,0.205,0.2062,0.2069,0.21,0.2109,0.2156,0.2147,0.2136,0.2201,0.217,0.2172,0.2222,0.2229,0.2235,0.2203,0.2147,0,0,0,0,0,0.1941,0.1942,0.1983,0.1986,0.1994,0.2011,0.201,0.2028,0.2051,0.2056,0.2083,0.2112,0.2155,0.2173,0.2195,0.2215,0.2217,0.2239,0.2246,0.2251,0.2224,0.2268,0.2276,0.2187,0.2187,0.2187,0,0,0.1928,0.1947,0.195,0.1976,0.1984,0.2003,0.2013,0.2016,0.2045,0.206,0.2097,0.2131,0.2165,0.2214,0.2232,0.2216,0.2285,0.2253,0.2259,0.2227,0.2271,0.228,0.2288,0.2188,0.2188,0.2187,0,0,0.1911,0.1919,0.1922,0.1935,0.1958,0.1975,0.1979,0.2006,0.2029,0.2064,0.2107,0.2155,0.2192,0.2243,0.227,0.2309,0.2318,0.2322,0.233,0.2375,0.2383,0.239,0.2438,0.2448,0.2325,0.2325,0.2325,0,0.1898,0.192,0.1921,0.1934,0.1953,0.1969,0.1993,0.2008,0.2049,0.2079,0.2086,0.218,0.2208,0.2294,0.2317,0.2326,0.2348,0.2308,0.2385,0.2392,0.2397,0.2444,0.2454,0.2329,0.2329,0.2328,0.2328,0,0.1893,0.1914,0.1911,0.1946,0.1956,0.197,0.2013,0.2034,0.2065,0.2099,0.2176,0.2222,0.2278,0.2311,0.2326,0.2394,0.2399,0.2394,0.237,0.2411,0.2458,0.2467,0.2334,0.2333,0.2332,0.2331,0,0,0.1877,0.1908,0.191,0.1934,0.1969,0.1979,0.2027,0.2084,0.2119,0.2165,0.2231,0.2305,0.2321,0.2349,0.239,0.2423,0.2502,0.242,0.242,0.2472,0.261,0.2626,0.2638,0.252,0.2522,0.2522,0.264,0,0.1888,0.1915,0.1932,0.1968,0.1995,0.2025,0.2065,0.2111,0.2159,0.2219,0.2282,0.235,0.2343,0.2387,0.2419,0.2492,0.2524,0.247,0.2554,0.2556,0.2571,0.2648,0.2548,0.2645,0.2649,0.2651,0.2652,0,0.1896,0.1916,0.1954,0.2,0.2012,0.2031,0.2096,0.2135,0.2217,0.2259,0.2326,0.2374,0.2462,0.2433,0.2548,0.252,0.2548,0.2585,0.2591,0.2573,0.2588,0.2596,0.2662,0.2589,0.2666,0.2665,0.2664,0,0.1892,0.1936,0.1967,0.1981,0.2029,0.2054,0.208,0.2148,0.2184,0.2289,0.2332,0.2431,0.2495,0.255,0.2626,0.2596,0.274,0.2718,0.2754,0.2756,0.2665,0.2657,0.2665,0.2759,0.2759,0.2759,0.2758,0,0.191,0.1936,0.1962,0.1976,0.2,0.2042,0.2078,0.2125,0.2198,0.2249,0.2342,0.2413,0.252,0.2619,0.266,0.2759,0.2776,0.2761,0.279,0.2692,0.2686,0.261,0.2571,0.2763,0.2762,0.2761,0.276,0,0.1912,0.1937,0.1961,0.1994,0.2,0.2013,0.2047,0.2075,0.2157,0.2235,0.2275,0.2421,0.2569,0.2676,0.28,0.2814,0.2832,0.2915,0.28,0.2813,0.2761,0.273,0.2668,0.2592,0.2979,0.298,0.2981,0,0.1917,0.1928,0.194,0.1934,0.1946,0.1965,0.1975,0.2045,0.208,0.2239,0.2279,0.2456,0.2569,0.2784,0.2883,0.3,0.2871,0.293,0.2838,0.2754,0.2741,0.2629,0.2559,0.2762,0.2761,0.2761,0.276,0,0.19,0.1896,0.1901,0.1882,0.1883,0.1893,0.1921,0.1947,0.2052,0.2121,0.2257,0.2369,0.2622,0.2722,0.2889,0.2939,0.2795,0.2918,0.2853,0.2589,0.2442,0.2384,0.2697,0.2753,0.2754,0.2754,0.2755,0.2755,0.1861,0.1843,0.1821,0.1804,0.1808,0.1814,0.1797,0.185,0.1896,0.1982,0.2157,0.2265,0.2484,0.2731,0.2774,0.2805,0.2788,0.2715,0.2695,0.2597,0.2473,0.2782,0.2857,0.2858,0.2859,0.286,0.2861,0,0.1778,0.1755,0.1734,0.1705,0.1679,0.1713,0.1741,0.1715,0.1734,0.1859,0.1946,0.2143,0.2275,0.2445,0.262,0.2575,0.245,0.2512,0.2301,0.2252,0.2553,0.2491,0.2463,0.2463,0.2463,0.2463,0.2463,0.2463,0.1731,0.1668,0.1653,0.1571,0.1558,0.15,0.1503,0.1492,0.1542,0.1615,0.1704,0.1838,0.2169,0.2374,0.241,0.2367,0.218,0.2122,0.2111,0.23,0.2315,0.233,0.2262,0.2186,0.2185,0.1699,0.1696,0.1693]},{"header":{"parameterUnit":"m.s-1","parameterCategory":2,"la1":30.2991,"la2":30.254,"lo1":-89.0895,"lo2":-89.0444,"dy":0.0017,"dx":0.0017,"nx":28,"ny":28,"refTime":"2023-08-04T21:00:00:Z","depth":"0","parameterNumber":3,"parameterNumberName":"V-component_of_CURRENTS"},"data":[0,0,0,0,0,0,0,0,0,0,0,0,0,0,0,0,0,0,0,0,0,0,0,0,0,0,0,0,0,0,0,0,0,0,0,0,0,0,0,0,0,0,0,0,0,0,0,0,0,0,0,0,0,0,0,0,0,0,-0.0779,-0.0781,0,-0.0854,-0.0855,-0.0855,-0.0887,-0.0888,-0.0889,-0.089,-0.0989,-0.0991,-0.0993,0,0,0,0,0,0,0,0,0,0,0,0,0,-0.0631,-0.0633,-0.0779,-0.0781,-0.0783,-0.0854,-0.0855,-0.0855,-0.0887,-0.0888,-0.0889,-0.089,-0.0989,-0.0991,-0.0993,0,0,0,0,0,0,0,0,0,0,0,0,0,-0.0691,-0.0633,-0.0779,-0.0814,-0.0819,-0.0854,-0.0855,-0.0855,-0.0887,-0.0888,-0.0889,-0.089,-0.0988,-0.0991,-0.0994,-0.0991,0,0,-0.1003,-0.1004,0,0,0,0,0,0,0,0,-0.0688,-0.0695,-0.0807,-0.0812,-0.0817,-0.087,-0.0839,-0.0905,-0.0887,-0.0852,-0.089,-0.0891,-0.0957,-0.0962,-0.0961,-0.0996,-0.1,-0.1003,-0.1005,-0.1006,-0.1007,0,0,0,0,0,0,0,-0.0683,-0.0692,-0.08,-0.0809,-0.0815,-0.0816,-0.0825,-0.0851,-0.0891,-0.0855,-0.086,-0.0882,-0.0959,-0.0958,-0.0964,-0.1002,-0.1003,-0.1006,-0.1008,-0.1009,-0.1033,-0.1032,0,0,0,0,0,0,-0.0693,-0.0688,-0.0798,-0.0803,-0.0764,-0.0818,-0.0828,-0.0845,-0.089,-0.0901,-0.0881,-0.0883,-0.0952,-0.0961,-0.0968,-0.096,-0.1006,-0.1009,-0.1011,-0.1034,-0.1033,-0.1032,0,0,0,0,0,0,-0.0689,-0.0702,-0.0795,-0.0755,-0.0768,-0.0821,-0.0839,-0.0846,-0.0855,-0.0912,-0.0921,-0.0885,-0.0954,-0.0964,-0.0992,-0.0965,-0.101,-0.1013,-0.1036,-0.1034,-0.1032,-0.0951,0,0,0,0,0,0,-0.0684,-0.0699,-0.0698,-0.0755,-0.0771,-0.0807,-0.0839,-0.0847,-0.0871,-0.0875,-0.0918,-0.0928,-0.0955,-0.0987,-0.0995,-0.097,-0.1016,-0.1037,-0.1035,-0.1033,-0.0955,-0.0946,-0.0939,0,0,0,0,0,-0.0679,-0.0678,-0.0697,-0.0711,-0.0773,-0.0807,-0.0812,-0.0848,-0.087,-0.0861,-0.0898,-0.0927,-0.0978,-0.0989,-0.0998,-0.0974,-0.1038,-0.1036,-0.1033,-0.0958,-0.0948,-0.0939,0,0,0,0,0,0,-0.063,-0.0684,-0.0706,-0.0727,-0.0762,-0.0816,-0.0813,-0.0847,-0.0866,-0.0867,-0.0922,-0.0933,-0.0943,-0.0972,-0.0982,-0.0973,-0.1009,-0.1008,-0.0949,-0.0939,-0.0932,-0.09,-0.1018,0,0,0,0,0,-0.0617,-0.062,-0.0682,-0.0698,-0.0709,-0.0759,-0.0775,-0.0801,-0.0839,-0.0848,-0.089,-0.0921,-0.0936,-0.0951,-0.097,-0.0974,-0.0988,-0.0961,-0.0953,-0.0946,-0.0926,-0.0934,-0.0925,-0.1023,-0.1023,-0.1023,0,0,-0.0612,-0.0637,-0.0645,-0.0685,-0.0709,-0.071,-0.0768,-0.0785,-0.0784,-0.0856,-0.0862,-0.0898,-0.0931,-0.0928,-0.0934,-0.0953,-0.0923,-0.0943,-0.0937,-0.092,-0.0931,-0.0921,-0.0913,-0.1021,-0.1022,-0.1022,0,0,-0.0579,-0.0613,-0.0592,-0.0608,-0.064,-0.0671,-0.0678,-0.0729,-0.0742,-0.0761,-0.0803,-0.0827,-0.0865,-0.0877,-0.0888,-0.085,-0.0882,-0.0855,-0.0792,-0.08,-0.0792,-0.0785,-0.0781,-0.0774,-0.0851,-0.0851,-0.0851,0,-0.0566,-0.0555,-0.0593,-0.0571,-0.0583,-0.0651,-0.0633,-0.0652,-0.0709,-0.0715,-0.075,-0.0792,-0.0832,-0.0817,-0.0802,-0.083,-0.0837,-0.0826,-0.0789,-0.0783,-0.0777,-0.0774,-0.0768,-0.0847,-0.0847,-0.0848,-0.0848,0,-0.0512,-0.0503,-0.0492,-0.0485,-0.0496,-0.0496,-0.0536,-0.0547,-0.0587,-0.0617,-0.0625,-0.0679,-0.0705,-0.0717,-0.075,-0.0721,-0.0739,-0.0779,-0.0812,-0.0762,-0.0763,-0.0757,-0.0841,-0.0842,-0.0844,-0.0845,0,0,-0.0488,-0.0459,-0.0455,-0.0432,-0.045,-0.0457,-0.0445,-0.0459,-0.0451,-0.05,-0.0486,-0.0524,-0.0569,-0.0582,-0.0629,-0.0635,-0.0609,-0.0682,-0.0684,-0.0672,-0.0612,-0.0607,-0.0602,-0.0645,-0.0644,-0.0643,-0.0625,0,-0.0434,-0.0375,-0.0378,-0.0333,-0.0309,-0.0348,-0.0332,-0.035,-0.0381,-0.0384,-0.043,-0.0438,-0.0512,-0.0521,-0.0539,-0.0593,-0.0593,-0.0609,-0.0665,-0.0666,-0.0665,-0.0595,-0.0552,-0.053,-0.062,-0.0619,-0.0619,0,-0.037,-0.0342,-0.0286,-0.0249,-0.0242,-0.0226,-0.022,-0.0212,-0.0227,-0.0247,-0.0268,-0.0317,-0.0331,-0.0403,-0.0457,-0.0465,-0.0521,-0.0565,-0.0566,-0.0584,-0.0651,-0.0597,-0.0518,-0.0647,-0.0611,-0.0612,-0.0613,0,-0.0328,-0.0273,-0.0228,-0.0219,-0.0194,-0.0171,-0.0161,-0.017,-0.0147,-0.0156,-0.0143,-0.0192,-0.0203,-0.0278,-0.0385,-0.0417,-0.0436,-0.0503,-0.0544,-0.0545,-0.0528,-0.0529,-0.0575,-0.0522,-0.0522,-0.0522,-0.0522,0,-0.0272,-0.0234,-0.0201,-0.0181,-0.012,-0.0116,-0.0059,-0.0064,-0.0039,0.0012,-0.0067,-0.0035,-0.0172,-0.0214,-0.0324,-0.0404,-0.0395,-0.0502,-0.053,-0.0497,-0.0496,-0.0626,-0.0696,-0.0521,-0.0521,-0.0521,-0.0521,0,-0.0232,-0.0215,-0.0155,-0.0115,-0.0097,-0.0053,0.0014,0.0059,0.0065,0.0135,0.0144,0.0097,0.0043,-0.0089,-0.0201,-0.0312,-0.0451,-0.0434,-0.0377,-0.0399,-0.057,-0.0636,-0.0689,-0.0722,-0.047,-0.0469,-0.0469,0,-0.0206,-0.0171,-0.0111,-0.0068,-0.0045,0.0022,0.0076,0.0105,0.0167,0.0225,0.0277,0.0243,0.0241,0.0079,-0.0118,-0.0281,-0.0411,-0.0358,-0.0418,-0.0541,-0.0637,-0.07,-0.0729,-0.0362,-0.036,-0.0359,-0.0359,0,-0.015,-0.0132,-0.0089,-0.0004,0.0061,0.0145,0.0231,0.0299,0.0358,0.0423,0.051,0.0518,0.0357,0.0213,-0.0027,-0.0154,-0.0422,-0.0344,-0.0486,-0.0549,-0.0604,-0.0662,-0.0414,-0.035,-0.0351,-0.0352,-0.0352,-0.0352,-0.0108,-0.0062,0.0,0.0085,0.0161,0.0283,0.0386,0.0479,0.0604,0.073,0.0701,0.0743,0.0505,0.0185,-0.0006,-0.0345,-0.0377,-0.0461,-0.0526,-0.0576,-0.0617,-0.0339,-0.0308,-0.0308,-0.0309,-0.0309,-0.031,0,-0.0037,0.0019,0.0097,0.0213,0.0327,0.035,0.0507,0.0621,0.0796,0.0872,0.0945,0.0863,0.0568,0.0238,-0.0218,-0.0482,-0.0583,-0.0633,-0.072,-0.0739,-0.0497,-0.0503,-0.0495,-0.0495,-0.0495,-0.0495,-0.0494,-0.0494,0.0003,0.0105,0.0151,0.0355,0.0446,0.063,0.0741,0.0873,0.0965,0.1095,0.1123,0.1117,0.0904,0.0027,-0.0566,-0.0706,-0.0889,-0.0925,-0.1037,-0.0898,-0.0888,-0.0879,-0.0903,-0.0979,-0.0979,-0.1236,-0.1239,-0.1241]}],[{"header":{"parameterUnit":"m.s-1","parameterCategory":2,"la1":30.2991,"la2":30.254,"lo1":-89.0895,"lo2":-89.0444,"dy":0.0017,"dx":0.0017,"nx":28,"ny":28,"refTime":"2023-08-04T21:00:00:Z","depth":"2","parameterNumber":2,"parameterNumberName":"U-component_of_CURRENTS"},"data":[0,0,0,0,0,0,0,0,0,0,0,0,0,0,0,0,0,0,0,0,0,0,0,0,0,0,0,0,0,0,0,0,0,0,0,0,0,0,0,0,0,0,0,0,0,0,0,0,0,0,0,0,0,0,0,0,0,0,0.1079,0.108,0,0.1136,0.1137,0.1138,0.1351,0.1355,0.1359,0.1363,0.15,0.15,0.1499,0,0,0,0,0,0,0,0,0,0,0,0,0,0.1095,0.1095,0.1079,0.108,0.108,0.1136,0.1137,0.1139,0.135,0.1355,0.136,0.1365,0.15,0.15,0.1499,0,0,0,0,0,0,0,0,0,0,0,0,0,0.1119,0.1095,0.1079,0.1188,0.1198,0.1136,0.1137,0.1139,0.1349,0.1355,0.1362,0.1368,0.15,0.15,0.1499,0.1363,0,0,0.1497,0.1497,0,0,0,0,0,0,0,0,0.1117,0.1119,0.1172,0.1181,0.1192,0.1239,0.1193,0.1216,0.1347,0.1297,0.1364,0.1371,0.1412,0.1419,0.1421,0.1369,0.1375,0.1497,0.1496,0.1496,0.1496,0,0,0,0,0,0,0,0.1115,0.1117,0.1107,0.1172,0.1184,0.1214,0.1226,0.1198,0.1322,0.1302,0.1316,0.1312,0.142,0.1421,0.1426,0.1377,0.1497,0.1496,0.1496,0.1496,0.161,0.1613,0,0,0,0,0,0,0.1093,0.1115,0.1105,0.1108,0.1164,0.1208,0.1222,0.1221,0.1321,0.134,0.1306,0.1322,0.1419,0.1426,0.1431,0.1597,0.1496,0.1495,0.1495,0.1607,0.1611,0.1615,0,0,0,0,0,0,0.1094,0.1092,0.1103,0.1109,0.1113,0.1201,0.1198,0.1218,0.1306,0.1323,0.1347,0.1384,0.1424,0.1432,0.148,0.1592,0.1495,0.1495,0.1603,0.1608,0.1613,0.1722,0,0,0,0,0,0,0.1094,0.1092,0.1101,0.1107,0.1111,0.115,0.1192,0.1215,0.1285,0.1309,0.1393,0.1409,0.143,0.148,0.1479,0.159,0.1494,0.1598,0.1605,0.1611,0.1714,0.173,0.1744,0,0,0,0,0,0.1094,0.1071,0.1101,0.1101,0.1116,0.1151,0.1159,0.1245,0.1283,0.1344,0.1383,0.1411,0.1525,0.1479,0.1477,0.1591,0.1595,0.1603,0.1611,0.1707,0.1727,0.1744,0,0,0,0,0,0,0.1105,0.1089,0.1124,0.1107,0.1167,0.1188,0.1207,0.1265,0.1335,0.1368,0.1395,0.1412,0.1513,0.1512,0.1461,0.165,0.1586,0.1594,0.1661,0.1679,0.1694,0.1659,0.1493,0,0,0,0,0,0.1096,0.1067,0.1105,0.11,0.1117,0.117,0.1195,0.1274,0.1315,0.1359,0.1407,0.1465,0.152,0.1569,0.1602,0.1651,0.1636,0.1744,0.176,0.1772,0.1746,0.1783,0.1798,0.164,0.164,0.164,0,0,0.111,0.108,0.1082,0.1099,0.1126,0.1188,0.1207,0.1272,0.136,0.1348,0.1463,0.1498,0.154,0.1637,0.1687,0.1666,0.1823,0.1782,0.1792,0.1758,0.1792,0.1807,0.182,0.1645,0.1645,0.1644,0,0,0.1121,0.1086,0.1103,0.1133,0.1186,0.1215,0.1252,0.1325,0.1405,0.148,0.1528,0.1608,0.1672,0.1746,0.1781,0.1879,0.1888,0.1942,0.2002,0.204,0.2052,0.2062,0.2111,0.2124,0.1967,0.1967,0.1967,0,0.1159,0.1164,0.1127,0.1159,0.1186,0.1239,0.1321,0.1379,0.1481,0.1529,0.1551,0.1678,0.1723,0.1843,0.191,0.1916,0.1933,0.1929,0.2056,0.2065,0.2074,0.2121,0.2134,0.1973,0.1972,0.1972,0.1971,0,0.1211,0.123,0.1225,0.1276,0.131,0.1368,0.1438,0.1521,0.1587,0.1649,0.1778,0.1817,0.1898,0.1967,0.1963,0.2089,0.2083,0.2056,0.2,0.2096,0.2141,0.2153,0.1982,0.198,0.1978,0.1976,0,0,0.1279,0.1274,0.1287,0.1316,0.1378,0.1405,0.152,0.1632,0.1703,0.1813,0.1908,0.202,0.2037,0.2075,0.2119,0.2165,0.2267,0.2147,0.2146,0.2177,0.2368,0.2338,0.2347,0.2265,0.2267,0.2268,0.2392,0,0.1369,0.1413,0.1406,0.1494,0.1527,0.1569,0.1647,0.1748,0.1824,0.1919,0.1998,0.2087,0.2086,0.2141,0.219,0.2248,0.2295,0.2235,0.2283,0.2285,0.223,0.2358,0.2059,0.214,0.2403,0.2405,0.2406,0,0.145,0.1456,0.1544,0.1559,0.1582,0.1653,0.1744,0.1828,0.1952,0.201,0.2105,0.215,0.2274,0.2227,0.2357,0.2325,0.2342,0.2366,0.2371,0.2295,0.2275,0.208,0.2151,0.2425,0.2423,0.2422,0.2421,0,0.1472,0.154,0.1592,0.1607,0.1664,0.1725,0.177,0.1873,0.1928,0.207,0.2123,0.2249,0.2324,0.2374,0.2445,0.241,0.2553,0.2511,0.2495,0.2495,0.2219,0.2191,0.2552,0.2552,0.2552,0.2551,0.2551,0,0.15,0.1545,0.1607,0.163,0.1694,0.1734,0.1815,0.1882,0.1983,0.205,0.2159,0.2241,0.2355,0.2454,0.2486,0.2555,0.2595,0.2517,0.2527,0.2258,0.2233,0.2439,0.2424,0.2556,0.2555,0.2554,0.2553,0,0.1478,0.1526,0.1593,0.168,0.1695,0.1743,0.1799,0.1852,0.1957,0.2054,0.2103,0.2266,0.2419,0.2521,0.2634,0.2612,0.2675,0.2667,0.2361,0.2332,0.2578,0.2568,0.2674,0.2674,0.2674,0.2674,0.2674,0,0.146,0.1496,0.1603,0.1626,0.1665,0.1721,0.1749,0.1837,0.1888,0.2063,0.2111,0.23,0.2416,0.26,0.2573,0.2639,0.2722,0.2417,0.228,0.2593,0.2592,0.2582,0.2572,0.198,0.1974,0.1969,0.1966,0,0.1438,0.1501,0.1542,0.1585,0.1633,0.166,0.1714,0.1745,0.1868,0.1947,0.2087,0.2201,0.2356,0.2306,0.2396,0.2385,0.2391,0.2327,0.2734,0.2003,0.195,0.1945,0.1956,0.1924,0.1928,0.1931,0.1934,0.1935,0.143,0.1455,0.1511,0.1531,0.157,0.1594,0.1592,0.1654,0.1709,0.1792,0.1954,0.202,0.2053,0.2042,0.2036,0.2023,0.2167,0.2061,0.207,0.2085,0.199,0.194,0.1897,0.19,0.1904,0.1907,0.1909,0,0.1389,0.1406,0.1429,0.1463,0.1459,0.1506,0.1546,0.1526,0.1547,0.164,0.1707,0.1578,0.1551,0.1665,0.1521,0.154,0.1471,0.1547,0.1399,0.1439,0.1475,0.1345,0.1083,0.1082,0.1081,0.1079,0,0,0.1381,0.1361,0.1359,0.1331,0.135,0.1321,0.1331,0.1313,0.1339,0.1329,0.1324,0.1399,0.1521,0.1235,0.121,0.1138,0.1292,0.1105,0.1745,0.1603,0.1638,0.1729,0.1571,0,0,0,0,0]},{"header":{"parameterUnit":"m.s-1","parameterCategory":2,"la1":30.2991,"la2":30.254,"lo1":-89.0895,"lo2":-89.0444,"dy":0.0017,"dx":0.0017,"nx":28,"ny":28,"refTime":"2023-08-04T21:00:00:Z","depth":"2","parameterNumber":3,"parameterNumberName":"V-component_of_CURRENTS"},"data":[0,0,0,0,0,0,0,0,0,0,0,0,0,0,0,0,0,0,0,0,0,0,0,0,0,0,0,0,0,0,0,0,0,0,0,0,0,0,0,0,0,0,0,0,0,0,0,0,0,0,0,0,0,0,0,0,0,0,-0.0128,-0.0129,0,-0.0254,-0.0255,-0.0257,-0.0412,-0.0415,-0.0417,-0.0419,-0.0588,-0.059,-0.0592,0,0,0,0,0,0,0,0,0,0,0,0,0,-0.0124,-0.0122,-0.0128,-0.0129,-0.0131,-0.0254,-0.0255,-0.0257,-0.0412,-0.0415,-0.0418,-0.042,-0.0587,-0.059,-0.0592,0,0,0,0,0,0,0,0,0,0,0,0,0,-0.0175,-0.0122,-0.0127,-0.0222,-0.0232,-0.0253,-0.0255,-0.0258,-0.0411,-0.0415,-0.0418,-0.0422,-0.0586,-0.0589,-0.0593,-0.0542,0,0,-0.0603,-0.0605,0,0,0,0,0,0,0,0,-0.0172,-0.0175,-0.0207,-0.0215,-0.0226,-0.032,-0.0316,-0.0355,-0.041,-0.0344,-0.0419,-0.0424,-0.0499,-0.051,-0.0526,-0.055,-0.0558,-0.0603,-0.0605,-0.0607,-0.0608,0,0,0,0,0,0,0,-0.0168,-0.0172,-0.0179,-0.0208,-0.022,-0.0294,-0.0304,-0.0324,-0.0401,-0.035,-0.0361,-0.0373,-0.0505,-0.0522,-0.0531,-0.056,-0.0603,-0.0606,-0.0608,-0.061,-0.0709,-0.0709,0,0,0,0,0,0,-0.0141,-0.0167,-0.0174,-0.0182,-0.0207,-0.029,-0.0302,-0.0287,-0.0401,-0.0421,-0.037,-0.038,-0.0515,-0.0527,-0.0538,-0.0598,-0.0607,-0.061,-0.0612,-0.0708,-0.0709,-0.0709,0,0,0,0,0,0,-0.014,-0.0139,-0.0169,-0.0179,-0.0188,-0.0285,-0.0268,-0.0288,-0.0372,-0.0415,-0.0437,-0.0441,-0.0518,-0.0533,-0.0579,-0.0602,-0.0612,-0.0615,-0.0707,-0.0708,-0.0709,-0.0647,0,0,0,0,0,0,-0.0139,-0.0137,-0.0141,-0.0176,-0.0186,-0.0218,-0.0266,-0.0288,-0.0368,-0.0385,-0.0481,-0.0497,-0.0522,-0.0574,-0.0583,-0.0607,-0.0617,-0.0707,-0.0708,-0.0709,-0.0648,-0.0645,-0.0643,0,0,0,0,0,-0.0138,-0.0102,-0.014,-0.0143,-0.0179,-0.0219,-0.0232,-0.0315,-0.0369,-0.0405,-0.0452,-0.0498,-0.0589,-0.0575,-0.0586,-0.0612,-0.0706,-0.0707,-0.0709,-0.0649,-0.0646,-0.0643,0,0,0,0,0,0,-0.0119,-0.0115,-0.0158,-0.0131,-0.0197,-0.0246,-0.0266,-0.0339,-0.0406,-0.0426,-0.0485,-0.0501,-0.055,-0.0588,-0.0573,-0.0647,-0.0663,-0.0667,-0.0615,-0.0612,-0.061,-0.0573,-0.062,0,0,0,0,0,-0.0108,-0.0076,-0.0125,-0.0118,-0.0134,-0.0217,-0.0253,-0.0318,-0.0368,-0.0407,-0.0469,-0.0525,-0.055,-0.059,-0.0616,-0.0649,-0.0655,-0.0682,-0.0679,-0.0677,-0.0656,-0.0665,-0.066,-0.0714,-0.0714,-0.0714,0,0,-0.0127,-0.0096,-0.0104,-0.0113,-0.0154,-0.0185,-0.0249,-0.0302,-0.0346,-0.0406,-0.0474,-0.0512,-0.0554,-0.0583,-0.0613,-0.063,-0.0667,-0.0679,-0.0676,-0.0656,-0.0666,-0.066,-0.0655,-0.0715,-0.0714,-0.0714,0,0,-0.0108,-0.0091,-0.0077,-0.0102,-0.0149,-0.0184,-0.0214,-0.0294,-0.0346,-0.04,-0.0447,-0.0493,-0.056,-0.0584,-0.0602,-0.0605,-0.0642,-0.0644,-0.0614,-0.0623,-0.0618,-0.0613,-0.0612,-0.0608,-0.0657,-0.0657,-0.0657,0,-0.0139,-0.0099,-0.0095,-0.0081,-0.0095,-0.0187,-0.021,-0.0259,-0.0359,-0.0376,-0.0421,-0.0494,-0.0548,-0.0559,-0.0567,-0.0598,-0.0604,-0.0617,-0.0616,-0.0612,-0.0608,-0.0608,-0.0604,-0.0654,-0.0654,-0.0654,-0.0655,0,-0.0128,-0.0106,-0.0085,-0.0084,-0.0106,-0.0128,-0.0181,-0.0236,-0.0301,-0.0349,-0.0391,-0.0441,-0.0487,-0.0524,-0.0545,-0.0556,-0.0568,-0.0597,-0.0613,-0.0598,-0.0601,-0.0597,-0.065,-0.0651,-0.0652,-0.0652,0,0,-0.0162,-0.0096,-0.0096,-0.008,-0.01,-0.0111,-0.0146,-0.0191,-0.0211,-0.03,-0.0308,-0.037,-0.041,-0.0432,-0.0482,-0.0501,-0.0493,-0.054,-0.0542,-0.0519,-0.0501,-0.0489,-0.0485,-0.052,-0.0519,-0.0519,-0.0512,0,-0.0172,-0.0115,-0.0089,-0.0081,-0.006,-0.0096,-0.0104,-0.0153,-0.0199,-0.0225,-0.0277,-0.0299,-0.0372,-0.0389,-0.042,-0.0468,-0.0482,-0.0491,-0.0536,-0.0537,-0.0511,-0.048,-0.0454,-0.0444,-0.0509,-0.0509,-0.0509,0,-0.0165,-0.0115,-0.009,-0.002,-0.0019,-0.0035,-0.0033,-0.0057,-0.0094,-0.0122,-0.0159,-0.0202,-0.0241,-0.03,-0.0368,-0.0371,-0.0426,-0.0465,-0.0467,-0.0469,-0.0518,-0.0473,-0.0436,-0.0504,-0.0504,-0.0504,-0.0505,0,-0.0145,-0.0094,-0.0056,-0.0046,-0.0016,-0.0012,-0.0009,-0.0034,-0.002,-0.0053,-0.0043,-0.0108,-0.0124,-0.0202,-0.0307,-0.0335,-0.0363,-0.0419,-0.0452,-0.0452,-0.0444,-0.0444,-0.0445,-0.0445,-0.0445,-0.0445,-0.0445,0,-0.0104,-0.0075,-0.0044,-0.0029,0.0018,0.003,0.0065,0.0048,0.006,0.0106,0.0017,0.0043,-0.0098,-0.0143,-0.0253,-0.0332,-0.0328,-0.0421,-0.0442,-0.0424,-0.0422,-0.049,-0.0496,-0.0445,-0.0445,-0.0445,-0.0445,0,-0.0064,-0.0052,-0.0007,0.0019,0.0036,0.0067,0.013,0.0163,0.0156,0.0216,0.022,0.0167,0.0107,-0.0026,-0.014,-0.0245,-0.0334,-0.0363,-0.0325,-0.0341,-0.0431,-0.0434,-0.0397,-0.0396,-0.0396,-0.0395,-0.0395,0,-0.0031,-0.0006,0.0026,0.006,0.0074,0.0128,0.0178,0.02,0.0256,0.0303,0.0353,0.031,0.0301,0.0135,-0.005,-0.0213,-0.0276,-0.0306,-0.036,-0.0397,-0.0422,-0.0426,-0.0429,-0.033,-0.0329,-0.0328,-0.0327,0,0.0022,0.0016,0.0049,0.012,0.017,0.0251,0.0329,0.0393,0.0444,0.0498,0.0575,0.0574,0.0416,0.025,0.0016,-0.0097,-0.0284,-0.0295,-0.0331,-0.0345,-0.0333,-0.0358,-0.0364,-0.0321,-0.0322,-0.0322,-0.0322,-0.0323,0.0052,0.0085,0.0127,0.0205,0.027,0.0385,0.0477,0.0563,0.0677,0.0764,0.0741,0.072,0.0496,0.0204,0.0017,-0.019,-0.02,-0.0307,-0.0309,-0.0313,-0.0305,-0.0293,-0.0271,-0.0271,-0.0272,-0.0272,-0.0272,0,0.0116,0.0157,0.0227,0.0324,0.043,0.0449,0.0597,0.0684,0.0836,0.086,0.0898,0.0698,0.0497,0.0252,-0.0038,-0.0217,-0.0238,-0.0282,-0.0291,-0.0295,-0.0299,-0.0293,-0.0255,-0.0255,-0.0256,-0.0256,0,0,0.0145,0.0239,0.0284,0.0466,0.0544,0.0702,0.08,0.0891,0.0938,0.0985,0.0942,0.0819,0.0539,0.0307,0.0067,-0.0091,-0.0144,-0.0111,-0.0103,-0.0087,-0.0089,-0.029,-0.0281,0,0,0,0,0]}],[{"header":{"parameterUnit":"m.s-1","parameterCategory":2,"la1":30.2991,"la2":30.254,"lo1":-89.0895,"lo2":-89.0444,"dy":0.0017,"dx":0.0017,"nx":28,"ny":28,"refTime":"2023-08-04T21:00:00:Z","depth":"4","parameterNumber":2,"parameterNumberName":"U-component_of_CURRENTS"},"data":[0,0,0,0,0,0,0,0,0,0,0,0,0,0,0,0,0,0,0,0,0,0,0,0,0,0,0,0,0,0,0,0,0,0,0,0,0,0,0,0,0,0,0,0,0,0,0,0,0,0,0,0,0,0,0,0,0,0,-0.0327,-0.0327,0,-0.0323,-0.0323,-0.0324,-0.0371,-0.0372,-0.0373,-0.0374,-0.0497,-0.0499,-0.0502,0,0,0,0,0,0,0,0,0,0,0,0,0,-0.0367,-0.0367,-0.0327,-0.0327,-0.0326,-0.0323,-0.0323,-0.0324,-0.0371,-0.0372,-0.0373,-0.0374,-0.0496,-0.0499,-0.0502,0,0,0,0,0,0,0,0,0,0,0,0,0,-0.036,-0.0367,-0.0327,-0.0346,-0.0347,-0.0323,-0.0323,-0.0324,-0.0371,-0.0372,-0.0373,-0.0375,-0.0495,-0.0499,-0.0502,-0.05,0,0,-0.0514,-0.0516,0,0,0,0,0,0,0,0,-0.036,-0.0359,-0.0343,-0.0344,-0.0346,-0.0345,-0.0382,-0.0387,-0.0371,-0.0367,-0.0374,-0.0375,-0.0454,-0.0461,-0.0462,-0.0506,-0.0511,-0.0514,-0.0516,-0.0518,-0.0519,0,0,0,0,0,0,0,-0.0361,-0.0359,-0.0331,-0.0343,-0.0344,-0.0351,-0.0352,-0.0383,-0.0409,-0.0367,-0.037,-0.0361,-0.0456,-0.0459,-0.0466,-0.0513,-0.0514,-0.0517,-0.052,-0.0521,-0.0723,-0.0726,0,0,0,0,0,0,-0.035,-0.036,-0.0331,-0.033,-0.0351,-0.0349,-0.035,-0.0348,-0.0406,-0.0414,-0.036,-0.0363,-0.0452,-0.0462,-0.0471,-0.06,-0.0518,-0.0522,-0.0524,-0.072,-0.0724,-0.0727,0,0,0,0,0,0,-0.0351,-0.0348,-0.0331,-0.0341,-0.0338,-0.0346,-0.0343,-0.0347,-0.0382,-0.0398,-0.041,-0.0394,-0.0453,-0.0465,-0.057,-0.06,-0.0523,-0.0527,-0.0716,-0.0721,-0.0725,-0.0777,0,0,0,0,0,0,-0.0352,-0.0348,-0.0356,-0.034,-0.0337,-0.0341,-0.0342,-0.0346,-0.037,-0.0375,-0.0431,-0.0441,-0.0455,-0.0564,-0.0573,-0.0604,-0.053,-0.0712,-0.0718,-0.0724,-0.0771,-0.0782,-0.0792,0,0,0,0,0,-0.0354,-0.0354,-0.0357,-0.0353,-0.0343,-0.0341,-0.0343,-0.0355,-0.037,-0.0392,-0.0462,-0.0442,-0.0607,-0.0571,-0.058,-0.0613,-0.0709,-0.0717,-0.0724,-0.0766,-0.078,-0.0792,0,0,0,0,0,0,-0.0375,-0.0357,-0.0361,-0.0356,-0.036,-0.0348,-0.0357,-0.0372,-0.0437,-0.0461,-0.0489,-0.0506,-0.0611,-0.0613,-0.0572,-0.0693,-0.0651,-0.066,-0.068,-0.0693,-0.0704,-0.0615,-0.0533,0,0,0,0,0,-0.038,-0.0387,-0.0367,-0.0374,-0.0367,-0.037,-0.0375,-0.0392,-0.0432,-0.0461,-0.0518,-0.0579,-0.0638,-0.067,-0.0728,-0.0787,-0.0724,-0.0815,-0.0826,-0.0835,-0.0774,-0.0774,-0.0777,-0.075,-0.075,-0.075,0,0,-0.039,-0.0384,-0.0388,-0.0381,-0.0379,-0.0392,-0.038,-0.0399,-0.0442,-0.0466,-0.0576,-0.0631,-0.0671,-0.0756,-0.0798,-0.0764,-0.0808,-0.0844,-0.085,-0.0783,-0.0781,-0.0783,-0.0784,-0.0755,-0.0754,-0.0753,0,0,-0.0406,-0.0405,-0.0409,-0.0417,-0.0421,-0.0427,-0.044,-0.0465,-0.0505,-0.0595,-0.0641,-0.0722,-0.0806,-0.0847,-0.0869,-0.097,-0.0879,-0.0992,-0.0953,-0.0958,-0.0957,-0.0957,-0.0852,-0.0841,-0.0979,-0.0979,-0.0979,0,-0.0419,-0.0422,-0.0414,-0.0423,-0.0436,-0.0448,-0.0467,-0.0503,-0.0584,-0.0613,-0.0644,-0.0777,-0.0839,-0.0901,-0.0936,-0.0989,-0.0924,-0.0899,-0.0964,-0.0963,-0.0961,-0.0854,-0.0841,-0.0983,-0.0982,-0.0982,-0.0982,0,-0.0432,-0.0447,-0.045,-0.0472,-0.0491,-0.0512,-0.0543,-0.0602,-0.0653,-0.068,-0.0775,-0.0857,-0.089,-0.0963,-0.097,-0.0997,-0.0931,-0.099,-0.0914,-0.0965,-0.0851,-0.0836,-0.0987,-0.0986,-0.0985,-0.0984,0,0,-0.0428,-0.0451,-0.046,-0.0471,-0.0521,-0.0529,-0.0607,-0.0646,-0.0662,-0.0763,-0.0776,-0.0908,-0.0889,-0.091,-0.095,-0.0969,-0.0924,-0.0945,-0.0944,-0.0804,-0.0823,-0.0744,-0.072,-0.0984,-0.0983,-0.0982,-0.0735,0,-0.0441,-0.0464,-0.0487,-0.0532,-0.0536,-0.0583,-0.0631,-0.0683,-0.0726,-0.0751,-0.0812,-0.0827,-0.0882,-0.0863,-0.09,-0.0934,-0.089,-0.0976,-0.0822,-0.0814,-0.0712,-0.0705,-0.0978,-0.0724,-0.0721,-0.0718,-0.0717,0,-0.0448,-0.0458,-0.0492,-0.0529,-0.0532,-0.0559,-0.0606,-0.0643,-0.0676,-0.0686,-0.0695,-0.071,-0.072,-0.0765,-0.0763,-0.0802,-0.0765,-0.0795,-0.0788,-0.0669,-0.0711,-0.0674,-0.069,-0.0692,-0.0694,-0.0696,-0.0697,0,-0.0442,-0.0469,-0.0496,-0.0514,-0.0552,-0.0565,-0.057,-0.0611,-0.06,-0.0577,-0.0534,-0.0577,-0.0526,-0.0564,-0.0595,-0.0644,-0.058,-0.067,-0.0545,-0.0535,-0.0652,-0.0656,-0.0606,-0.0606,-0.0606,-0.0607,-0.0608,0,-0.0439,-0.0468,-0.0472,-0.049,-0.0477,-0.0505,-0.048,-0.0494,-0.0457,-0.0416,-0.043,-0.0402,-0.0468,-0.046,-0.0516,-0.0457,-0.0493,-0.0476,-0.0471,-0.0679,-0.069,-0.0638,-0.0645,-0.0598,-0.06,-0.0602,-0.0603,0,-0.0442,-0.0454,-0.0483,-0.0497,-0.0474,-0.0453,-0.0379,-0.0352,-0.0299,-0.0232,-0.0185,-0.0197,-0.0174,-0.0233,-0.0267,-0.0293,-0.0309,-0.0265,-0.0377,-0.0393,-0.0256,-0.0269,-0.0065,-0.006,-0.0056,-0.0053,-0.005,0,-0.0445,-0.0461,-0.048,-0.0439,-0.0429,-0.0364,-0.0317,-0.0266,-0.0228,-0.0142,-0.0117,-0.0028,-0.0049,0.0018,-0.0102,-0.0093,-0.0131,-0.0058,-0.0239,-0.0185,-0.0202,-0.0222,-0.024,-0.0043,-0.0042,-0.0041,-0.004,0,-0.0459,-0.0489,-0.0505,-0.0416,-0.0352,-0.0282,-0.0204,-0.0149,-0.0091,-0.0049,0.0037,0.0079,0.0129,0.0073,0.0138,0.0073,-0.0096,-0.0017,-0.0028,-0.0197,-0.0158,-0.0183,-0.0205,-0.0026,-0.0028,-0.003,-0.003,0,-0.0481,-0.0478,-0.0477,-0.038,-0.0292,-0.0194,-0.0173,-0.0081,-0.001,0.0081,0.0085,0.0124,0.0136,0.0164,0.0138,0.0173,0.0143,0.0128,0.0109,0.0093,0.0009,0.0074,0.0335,0,0,0,0,0,-0.0459,-0.0438,-0.0402,-0.0311,-0.0231,-0.0153,-0.0093,-0.0082,-0.0032,0.0068,0.0109,0.0147,0.0215,0.018,0.0242,0.0149,0.0102,0.0218,0.0063,0.005,0.0034,-0.0093,0,0,0,0,0,0,-0.044,-0.043,-0.0409,-0.0252,-0.0152,-0.0057,-0.0001,0.0008,0.0059,0.0106,0.0124,0.0186,0.0204,0.0211,0.0258,0.0257,0.0172,0.0238,0.024,0.006,0.0045,0.0032,-0.0105,0,0,0,0,0]},{"header":{"parameterUnit":"m.s-1","parameterCategory":2,"la1":30.2991,"la2":30.254,"lo1":-89.0895,"lo2":-89.0444,"dy":0.0017,"dx":0.0017,"nx":28,"ny":28,"refTime":"2023-08-04T21:00:00:Z","depth":"4","parameterNumber":3,"parameterNumberName":"V-component_of_CURRENTS"},"data":[0,0,0,0,0,0,0,0,0,0,0,0,0,0,0,0,0,0,0,0,0,0,0,0,0,0,0,0,0,0,0,0,0,0,0,0,0,0,0,0,0,0,0,0,0,0,0,0,0,0,0,0,0,0,0,0,0,0,0.0412,0.0411,0,0.0361,0.0361,0.036,0.0425,0.0427,0.043,0.0432,0.0427,0.0424,0.0422,0,0,0,0,0,0,0,0,0,0,0,0,0,0.0427,0.0427,0.0412,0.0411,0.0411,0.0361,0.0361,0.036,0.0424,0.0427,0.043,0.0433,0.0427,0.0425,0.0422,0,0,0,0,0,0,0,0,0,0,0,0,0,0.0402,0.0427,0.0412,0.0438,0.0439,0.0362,0.0361,0.036,0.0424,0.0427,0.0431,0.0434,0.0428,0.0425,0.0421,0.0326,0,0,0.041,0.0409,0,0,0,0,0,0,0,0,0.0404,0.0402,0.0434,0.0436,0.0438,0.0404,0.0364,0.0351,0.0423,0.0429,0.0432,0.0436,0.0421,0.0418,0.0399,0.0325,0.0325,0.041,0.0408,0.0406,0.0405,0,0,0,0,0,0,0,0.0405,0.0403,0.0391,0.0433,0.0435,0.0405,0.0406,0.0361,0.0405,0.0428,0.0433,0.0428,0.0423,0.0402,0.0399,0.0325,0.041,0.0407,0.0405,0.0403,0.0329,0.0329,0,0,0,0,0,0,0.0416,0.0405,0.0393,0.039,0.043,0.0402,0.0404,0.041,0.0405,0.0407,0.0425,0.0431,0.0406,0.0403,0.0399,0.0435,0.0406,0.0403,0.0401,0.0328,0.0329,0.0329,0,0,0,0,0,0,0.0417,0.0416,0.0395,0.0396,0.0392,0.0399,0.0405,0.0407,0.0433,0.0402,0.0406,0.0454,0.0409,0.0404,0.0409,0.0431,0.0401,0.0398,0.0328,0.0329,0.0329,0.0412,0,0,0,0,0,0,0.0418,0.0417,0.0428,0.0397,0.0392,0.0365,0.0401,0.0404,0.0421,0.0431,0.0426,0.0427,0.0412,0.0414,0.0405,0.0425,0.0395,0.0328,0.0328,0.0329,0.0409,0.0415,0.042,0,0,0,0,0,0.0419,0.0405,0.0429,0.0428,0.0408,0.0364,0.0358,0.0374,0.042,0.0415,0.0439,0.043,0.0411,0.0411,0.04,0.042,0.0328,0.0328,0.0329,0.0406,0.0413,0.042,0,0,0,0,0,0,0.0414,0.041,0.0436,0.0425,0.0411,0.0377,0.0368,0.0389,0.0399,0.0429,0.0423,0.0423,0.0437,0.0406,0.0407,0.0398,0.0369,0.0367,0.0432,0.0438,0.0444,0.0409,0.0392,0,0,0,0,0,0.0419,0.0421,0.0406,0.0403,0.0396,0.0394,0.0385,0.0401,0.04,0.0411,0.0421,0.0424,0.0415,0.0416,0.0395,0.0376,0.0327,0.0383,0.0389,0.0394,0.0357,0.0327,0.0327,0.033,0.033,0.033,0,0,0.0419,0.0416,0.0421,0.0403,0.0397,0.0377,0.0399,0.0392,0.0396,0.0403,0.043,0.0442,0.0415,0.0415,0.0417,0.0402,0.0368,0.0394,0.0399,0.0358,0.0328,0.0327,0.0327,0.0331,0.0331,0.0331,0,0,0.04,0.0418,0.041,0.0397,0.0391,0.0381,0.0391,0.0388,0.0411,0.0419,0.0444,0.0466,0.0449,0.044,0.0429,0.0439,0.0401,0.0453,0.0451,0.0425,0.0424,0.0423,0.0368,0.0361,0.0455,0.0455,0.0455,0,0.0408,0.0402,0.0397,0.0379,0.0375,0.0391,0.0381,0.0378,0.039,0.0401,0.0442,0.0445,0.0448,0.043,0.0456,0.0451,0.0424,0.0437,0.0433,0.043,0.0427,0.0371,0.0362,0.0459,0.0459,0.0458,0.0458,0,0.0367,0.0382,0.0369,0.0368,0.0352,0.0345,0.0342,0.0357,0.0403,0.0409,0.0432,0.0442,0.0444,0.0464,0.0467,0.0455,0.0439,0.045,0.042,0.0432,0.0372,0.0361,0.0465,0.0463,0.0462,0.0461,0,0,0.0359,0.0348,0.0357,0.0364,0.0357,0.0337,0.034,0.0333,0.0347,0.0379,0.0387,0.0408,0.0441,0.0427,0.0449,0.0433,0.0419,0.0445,0.0441,0.0394,0.0346,0.0338,0.0324,0.0451,0.0449,0.0448,0.0315,0,0.0348,0.0334,0.0323,0.0321,0.0318,0.0323,0.0318,0.0319,0.0341,0.0349,0.0364,0.0393,0.0417,0.046,0.0438,0.0418,0.0393,0.0452,0.0333,0.0327,0.0324,0.0313,0.0443,0.0306,0.0304,0.0302,0.0301,0,0.0332,0.0323,0.0336,0.0323,0.032,0.0337,0.0341,0.0337,0.0334,0.0356,0.0369,0.0377,0.0362,0.0405,0.0328,0.0372,0.0358,0.0338,0.0333,0.0277,0.0299,0.0286,0.028,0.0282,0.0284,0.0285,0.0286,0,0.0357,0.0336,0.0361,0.0359,0.0342,0.0374,0.0383,0.0382,0.0387,0.0398,0.0401,0.0363,0.038,0.0327,0.0279,0.0321,0.0173,0.0225,0.0185,0.0183,0.0194,0.0197,0.0166,0.0166,0.0166,0.0167,0.0167,0,0.035,0.0363,0.0401,0.0417,0.0448,0.0429,0.0475,0.0472,0.0473,0.0432,0.0444,0.0378,0.0373,0.0282,0.0237,0.0147,0.0135,0.0152,0.0145,0.0233,0.0242,0.0187,0.0191,0.0162,0.0163,0.0164,0.0165,0,0.0365,0.0391,0.0431,0.0462,0.0487,0.0531,0.0571,0.0568,0.0574,0.0519,0.0529,0.0423,0.0304,0.0246,0.0143,0.0112,0.0021,0.0001,0.0051,0.0054,0.0058,0.0068,-0.0057,-0.0059,-0.006,-0.0061,-0.0062,0,0.0348,0.0392,0.0503,0.0568,0.0611,0.0671,0.0696,0.0675,0.0599,0.0485,0.0389,0.033,0.0243,0.0069,0.0018,-0.0072,-0.0051,-0.0097,0.0025,0.0027,0.0033,0.0045,0.0057,-0.0064,-0.0064,-0.0065,-0.0065,0,0.0335,0.0441,0.0491,0.0657,0.0736,0.0727,0.0711,0.0644,0.052,0.0522,0.0303,0.0247,0.0109,0.0019,-0.0017,-0.0097,-0.0072,-0.0109,-0.0104,0.001,0.0018,0.0028,0.004,-0.0069,-0.0069,-0.0068,-0.0068,0,0.0369,0.0441,0.0604,0.0696,0.0807,0.075,0.0721,0.0576,0.0506,0.0304,0.0206,0.0116,0.0063,-0.0005,-0.0107,-0.0116,-0.0084,-0.0065,-0.0062,-0.0058,0.0007,0.0022,-0.0098,0,0,0,0,0,0.0412,0.0503,0.0611,0.07,0.0793,0.0825,0.0697,0.0603,0.0415,0.0276,0.0251,0.0112,0.0038,-0.0046,-0.0049,-0.0108,-0.0085,-0.0116,-0.006,-0.0093,-0.0088,-0.0008,0,0,0,0,0,0,0.0457,0.061,0.0616,0.068,0.073,0.0755,0.0676,0.0528,0.0378,0.0239,0.0182,0.0151,0.006,0.0095,-0.0019,-0.0036,-0.0,-0.0158,-0.0159,-0.0096,-0.0092,-0.0088,-0.0004,0,0,0,0,0]}]]